Regional Weather Roundup
Issued by NWS

Home | Current Version | Previous Version | Graphics & Text | Print | Product List | Glossary On
Versions: 1 2 3 4 5 6 7 8 9 10 11 12 13 14 15 16 17 18 19 20 21 22 23 24 25 26 27 28 29 30 31 32 33 34 35 36 37 38 39 40 41 42 43 44 45 46 47 48 49 50
000
ASUS43 KOAX 250410
RWRNE

WEATHER ROUNDUP FOR NEBRASKA
NATIONAL WEATHER SERVICE OMAHA NE
1100 PM CDT WED MAY 24 2017

NOTES: SATELLITE DATA IS BEING USED TO AUGMENT CLOUD COVER ABOVE
       12000 FEET.
       "FAIR" INDICATES FEW OR NO CLOUDS BELOW 12,000 FEET WITH NO
       SIGNIFICANT WEATHER AND/OR OBSTRUCTIONS TO VISIBILITY.

  * THESE STATIONS DO NOT REPORT WEATHER SUCH AS RAIN...SNOW OR FOG.

NEZ001>004-019>022-054>056-250500-
NEBRASKA PANHANDLE

CITY           SKY/WX    TMP DP  RH WIND       PRES   REMARKS
SCOTTSBLUFF    CLEAR     69  41  36 W6        29.45R
ALLIANCE       CLEAR     60  46  59 SE16      29.45R
CHADRON        CLOUDY    68  45  43 S25G36    29.35R
GORDON         FAIR      63  45  50 S16G23    29.42F
KIMBALL        CLEAR     58  44  58 W10       29.55S
SIDNEY         CLEAR     56  48  74 E7        29.52R
$$

NEZ057>060-069>072-079>082-250500-
SOUTHWEST NEBRASKA

CITY           SKY/WX    TMP DP  RH WIND       PRES   REMARKS
NORTH PLATTE   CLEAR     58  42  55 SE13      29.55S
IMPERIAL       CLEAR     60  44  55 SE18      29.54R
LEXINGTON      CLEAR     58  44  59 SE15      29.59S
MCCOOK         CLEAR     58  44  60 SE13      29.58S
OGALLALA       CLEAR     63  45  52 SE17G29   29.51S
$$

NEZ005>010-023>029-035>040-094-250500-
NORTH CENTRAL NEBRASKA

CITY           SKY/WX    TMP DP  RH WIND       PRES   REMARKS
VALENTINE      CLEAR     61  40  45 SE17      29.47S
AINSWORTH      CLEAR     56  43  61 S18G26    29.51S
BROKEN BOW     CLEAR     56  44  64 S14       29.59R
O`NEILL        CLEAR     56  41  57 S13       29.58F
ORD            CLEAR     55  41  59 SE10      29.59S
THEDFORD       CLEAR     58  41  53 SE15G21   29.55R
$$

NEZ041-046>049-061>064-073>077-083>087-250500-
SOUTH CENTRAL NEBRASKA

CITY           SKY/WX    TMP DP  RH WIND       PRES   REMARKS
GRAND ISLAND   CLEAR     56  46  69 SE10      29.65S
AURORA         CLEAR     55  44  67 SE8       29.66S
HASTINGS       CLEAR     56  45  66 SE12      29.65S
HEBRON         CLEAR     55  46  73 S6        29.68R
HOLDREGE       CLEAR     55  43  64 SE15      29.62R
KEARNEY *      CLEAR     55  43  62 SE16      29.63S
YORK           CLEAR     55  45  67 CALM      29.67R
$$

NEZ011>018-030>034-042>045-250500-
NORTHEAST NEBRASKA

CITY           SKY/WX    TMP DP  RH WIND       PRES   REMARKS
NORFOLK        CLEAR     52  43  71 SE8       29.64S
ALBION         CLEAR     53  43  68 SE8       29.63F
BLAIR          CLEAR     57  45  65 SE6       29.68S
FREMONT        CLEAR     54  45  72 E5        29.68S
TEKAMAH        CLEAR     55  32  41 CALM      29.67S
WAYNE          CLEAR     54  44  68 SE12      29.65F
$$

NEZ050>053-065>068-078-088>093-250500-
SOUTHEAST NEBRASKA

CITY           SKY/WX    TMP DP  RH WIND       PRES   REMARKS
LINCOLN        CLEAR     55  45  68 SE5       29.69R
OMAHA EPPLEY   CLEAR     56  45  66 CALM      29.68S
BEATRICE       CLEAR     55  45  68 CALM      29.68S
FALLS CITY     CLEAR     57  45  64 SE5       29.69R
NEBRASKA CITY  CLEAR     60  36  40 E3        29.69S
PLATTSMOUTH    CLEAR     58  45  61 SE5       29.69S
$$

NEZ044-045-051>053-067-250500-
OMAHA AREA

CITY           SKY/WX    TMP DP  RH WIND       PRES   REMARKS
OMAHA EPPLEY   CLEAR     56  45  66 CALM      29.68S
BLAIR          CLEAR     57  45  65 SE6       29.68S
FREMONT        CLEAR     54  45  72 E5        29.68S
MILLARD        CLEAR     54  49  83 CALM      29.68S
OFFUTT AFB     CLEAR     49  47  93 NE3       29.68R
PLATTSMOUTH    CLEAR     58  45  61 SE5       29.69S
WAHOO          FAIR      54  45  73 SE6       29.68R
$$




USA.gov is the U.S. government's official web portal to all federal, state and local government web resources and services.